Location: Igon
(43.1667°N, 0.2333°W)
Time: 15:25:03
(UTC+00:00)

NOSS 3-4 (C) - Pass Details

Date: 29 November 2020
Orbit: 878 x 1334 km, 63.4° (Epoch: 21 January)

Event Time Altitude Azimuth Distance (km) Brightness Sun altitude
Exits shadow 04:00:58 53° 78° (ENE) 1,110 4.0 -34.1°
Drops below altitude 10° 04:05:59 10° 42° (NE) 2,681 6.2 -33.1°
Sets 04:08:40 0° 39° (NE) 3,688 7.0 -32.7°
